User: anonymous   Login
Location: G�ppingen
(48.7089°N, 9.6563°E)
Time: 23:55:19
(UTC+01:00)
Language:

M-CUBED/EXP-1 PRIME - Orbit

View from above orbital plane
View from above orbital plane
View from above satellite
View from above satellite

Ground track
Ground track

The orbit data is extracted from the following two-line orbital elements,

1 37855U 11061F   19077.87371401 +.00000894 +00000-0 +52919-4 0  9993
2 37855 101.7272 286.2842 0174310 348.9314 010.8083 15.05200141402498
Epoch (UTC): 18 March 2019 20:58:08
Eccentricity: 0.0174310
inclination: 101.7272°
perigee height: 430 km
apogee height: 671 km
right ascension of ascending node: 286.2842°
argument of perigee: 348.9314°
revolutions per day: 15.05200141
mean anomaly at epoch: 10.8083°
orbit number at epoch: 40249

The dashed part of the orbit path shows where the satellite is in the earth's shadow,  

DLR